{"data":{"norad_id":48105,"intl_designator":"2021-027P","name":"STARLINK-2440","alt_names":[],"object_type":"PAYLOAD","status":"ACTIVE","operator":null,"country":"US","launch_date":"2021-04-07","launch_site_code":"AFETR","launch_vehicle":null,"mission":null,"orbit_class":"UNKNOWN","rcs_meters":null,"size_class":null,"mass_kg":null,"dimensions":null,"purposes":["comms"],"wikipedia_slug":null,"has_3d_model":false,"image_url":null,"decayed_at":null,"tle_current":{"epoch":"2026-09-19T14:11:23.887680Z","epoch_age_seconds":107765,"freshness":"FRESH","line1":"1 48105U 21027P   26262.59124870  .00002363  00000+0  87840-4 0  9998","line2":"2 48105  53.1606 278.8615 0001444  78.6766 281.4397 15.31723866303115","mean_motion":15.31723866,"eccentricity":0.0001444,"inclination_deg":53.1606,"raan_deg":278.8615,"arg_perigee_deg":78.6766,"mean_anomaly_deg":281.4397,"bstar":8.784e-5,"rev_number":30311,"period_min":94.011723128691,"perigee_km":469.67988528013,"apogee_km":471.65782041043,"semimajor_km":6848.8058528453,"source":"CELESTRAK","updated_at":"2026-09-20T09:00:38.763126Z"}}}